Location: Wapato
(46.4478°N, 120.4212°W)
Time: 14:17:54
(UTC+00:00)

Vanguard 2 Rocket - Pass Details

Date: 10 May 2026
Orbit: 553 x 3286 km, 32.9° (Epoch: 7 June)

Event Time Altitude Azimuth Distance (km) Brightness Sun altitude
Rises 23:57:23 0° 266° (W) 6,993 12.5 33.3°
Reaches altitude 10° 00:02:06 10° 261° (W) 6,129 12.6 32.5°
Maximum altitude 00:20:36 48° 196° (SSW) 3,760 10.6 29.3°
Drops below altitude 10° 00:35:54 10° 129° (SE) 5,137 10.4 26.7°
Sets 00:39:27 0° 123° (ESE) 5,832 10.6 26.1°
